This is the latest recevied weather packets stored in our database for station/object WE1C. If no packets are shown the sender has not sent any weather packets the latest 10 day(s).
| Time | Temp. | Humidity | Pressure | Rain* | Wind** | Luminosity | Snow |
|---|---|---|---|---|---|---|---|
| 1777798447 | 3.89° C | 75% | 1036.9 hPa | 0 mm | - | 0 W/m² | - |
| 1777798143 | 3.89° C | 75% | 1037 hPa | 0 mm | - | 0 W/m² | - |
| 1777797841 | 3.89° C | 74% | 1036.9 hPa | 0 mm | - | 0 W/m² | - |
| 1777797539 | 3.89° C | 75% | 1037 hPa | 0 mm | - | 0 W/m² | - |
| 1777797236 | 3.89° C | 75% | 1037.2 hPa | 0 mm | - | 0 W/m² | - |
| 1777796932 | 3.89° C | 75% | 1037.2 hPa | 0 mm | - | 0 W/m² | - |
| 1777796629 | 3.89° C | 73% | 1037.3 hPa | 0 mm | - | 0 W/m² | - |
| 1777796325 | 3.89° C | 73% | 1037 hPa | 0 mm | - | 0 W/m² | - |
| 1777796021 | 3.89° C | 72% | 1037.2 hPa | 0 mm | - | 0 W/m² | - |
| 1777795718 | 3.89° C | 73% | 1037.2 hPa | 0 mm | - | 0 W/m² | - |
| 1777795415 | 3.89° C | 73% | 1037.6 hPa | 0 mm | - | 0 W/m² | - |
| 1777795111 | 3.89° C | 74% | 1037.5 hPa | 0 mm | - | 0 W/m² | - |
| 1777794807 | 3.89° C | 74% | 1037.9 hPa | 0 mm | - | 0 W/m² | - |
| 1777794504 | 3.89° C | 72% | 1037.6 hPa | 0 mm | - | 0 W/m² | - |
| 1777794199 | 3.89° C | 72% | 1037.4 hPa | 0 mm | - | 0 W/m² | - |
| 1777793896 | 3.89° C | 72% | 1037.5 hPa | 0 mm | - | 0 W/m² | - |
| 1777793594 | 4.44° C | 73% | 1037.7 hPa | 0 mm | - | 0 W/m² | - |
| 1777793291 | 4.44° C | 73% | 1037.8 hPa | 0 mm | - | 0 W/m² | - |
| 1777792988 | 4.44° C | 68% | 1037.5 hPa | 0 mm | - | 0 W/m² | - |
| 1777792684 | 4.44° C | 71% | 1037.8 hPa | 0 mm | - | 0 W/m² | - |
| 1777792382 | 4.44° C | 72% | 1037.9 hPa | 0 mm | - | 0 W/m² | - |
| 1777792077 | 4.44° C | 71% | 1038.1 hPa | 0 mm | - | 0 W/m² | - |
| 1777791776 | 4.44° C | 70% | 1038 hPa | 0 mm | - | 0 W/m² | - |
| 1777791474 | 5° C | 72% | 1037.9 hPa | 0 mm | - | 0 W/m² | - |
| 1777791171 | 5° C | 70% | 1038.1 hPa | 0 mm | - | 0 W/m² | - |
* Rain latest hour (hover to see other rain measurements)
** Current wind speed in m/s (hover to see current wind gust speed)